OBJECT BT, 62674

Orbit data source: Space-Track

You're viewing an Uncataloged Satellite

Recently launched and/or uncataloged satellites may have evolving metadata. Metadata may include but not limited to: Owner, Maufacturer, Bus, Motor, and Mission.

OBJECT BT, 62674 is a satellite in SSO that was launched on Tue, 14 Jan 2025 UTC via an FALCON 9 launch vehicle from the Air Force Western Test Range (AFWTR). Unknown objects in Earth's orbit typically refer to objects detected orbiting the Earth but have not yet been identified or cataloged. These objects could be anything from previously untracked satellites, spent rocket stages, debris from satellite collisions, or even natural meteoroids temporarily captured by Earth's gravity.

Loading next visibility...
Identifier
62674, 2025-009BT
Orbit
SSO
Country
Flag of TBDTBD
Related business
None
Manufacturer
Unknown
Mission
Operational Commercial Imaging
Bus & Motor
Unknown
Mass
Unknown
Launch date (UTC)
2025-01-14 (1 year ago)
Launch vehicle
FALCON 9
Launch site
Air Force Western Test Range (AFWTR)
Object type
Unknown
Shape & HBR
Box + 2 Pan, 0.1 m
Radar Cross Section
0.035 m², Small (<0.1 m²)

Expand to show TLE details & history
Last TLE update: 8 hours ago

TLE from 8 hours ago
0 OBJECT BT
1 62674U 25009BT  26104.20013168  .00005619  00000-0  20330-3 0  9997
2 62674  97.4065 186.8970 0005294 164.9590 195.1808 15.28814538126782
Epoch: 2026-04-14T04:48Z
TLE epoch observation values (Epoch: 2026-04-14T04:48:11.377Z)
Latitude
-0.00003°
Longitude
-87.5302°
Altitude
485.962 km
Speed
7.62 km/s
True Right ascension
12h 27m 35s
True Declination
0° 00' 00"
Sunlit
Object was in full shadow at epoch
Visualization orbit readout
Latitude
Unknown
Longitude
Unknown
Altitude
Unknown
Speed
Unknown
Apparent Right ascension
Unknown
Apparent Declination
Unknown
Sunlit
N/A
Visualization observer readout
Local Sidereal Time
19:14:29
Azimuth
Unknown
Elevation
Unknown
Doppler factor
Unknown
Orbital elements
Apogee altitude
479.938 km
Perigee altitude
472.68 km
Semi-major axis
6,854.446 km
Eccentricity
0.00053
Inclination
97.4065°
RAAN
186.897°
Arg. of periapsis
164.959°
True anomaly
195.16492°
Mean anomaly
195.1808°
Eccentric anomaly
195.17286°
Mean motion
3.82459 °/min
Orbital period
94.13 mins
BSTAR
0.0002033
Loading maneuver chart data...
Computing Atmospheric mass density...
Loading historical data...
Loading historical data...
Loading historical data...
Loading historical data...
Loading historical data...
Loading historical data...
Loading historical data...

Documentation

Showing up to 5 results
|